| time (UTC) | temp F | wind direction | speed knots | gust knots | rain 1hr in | rain 24hr in | rain mn in | humidity % | barometer mb |
| 20260504081849 | 46 | 193 | 6.1 | 7.8 | 0.00 | 0.00 | 0.00 | 67 | 1010.8 |
| 20260504045845 | 50 | 189 | 5.2 | 8.7 | 0.00 | 0.00 | 0.00 | 63 | 1011.1 |
| 20260504043845 | 50 | 188 | 4.3 | 7.8 | 0.00 | 0.00 | 0.00 | 64 | 1011.1 |
| 20260504042845 | 51 | 159 | 6.1 | 7.8 | 0.00 | 0.00 | 0.00 | 62 | 1011.4 |
| 20260504041845 | 51 | 173 | 7.0 | 8.7 | 0.00 | 0.00 | 0.00 | 62 | 1011.3 |
| 20260504040845 | 51 | 173 | 4.3 | 7.8 | 0.00 | 0.00 | 0.00 | 62 | 1011.4 |
| 20260504035844 | 51 | 162 | 3.5 | 9.6 | 0.00 | 0.00 | 0.00 | 61 | 1011.4 |
| 20260504034844 | 51 | 169 | 3.5 | 12.2 | 0.00 | 0.00 | 0.00 | 60 | 1011.5 |
| 20260504033844 | 51 | 175 | 7.0 | 9.6 | 0.00 | 0.00 | 0.00 | 62 | 1011.5 |
| 20260504032844 | 51 | 158 | 5.2 | 8.7 | 0.00 | 0.00 | 0.00 | 62 | 1011.5 |
| 20260504031844 | 51 | 161 | 4.3 | 8.7 | 0.00 | 0.00 | 0.00 | 63 | 1011.6 |
| 20260504025844 | 50 | 186 | 7.8 | 9.6 | 0.00 | 0.00 | 0.00 | 65 | 1011.7 |
| 20260504024843 | 50 | 152 | 4.3 | 9.6 | 0.00 | 0.00 | 0.00 | 65 | 1011.8 |
| 20260504023843 | 50 | 196 | 4.3 | 7.8 | 0.00 | 0.00 | 0.00 | 67 | 1011.8 |
| 20260504022843 | 49 | 127 | 1.7 | 8.7 | 0.00 | 0.00 | 0.00 | 68 | 1012.0 |
| 20260504021843 | 49 | 313 | 3.5 | 13.0 | 0.00 | 0.00 | 0.00 | 68 | 1012.3 |
| 20260504015843 | 51 | 187 | 6.1 | 12.2 | 0.00 | 0.00 | 0.00 | 60 | 1012.5 |
| 20260504014842 | 51 | 301 | 1.7 | 9.6 | 0.00 | 0.00 | 0.00 | 59 | 1012.1 |
| 20260504013842 | 51 | 227 | 1.7 | 8.7 | 0.00 | 0.00 | 0.00 | 60 | 1012.1 |
| 20260504010912 | 50 | 125 | 1.7 | 7.8 | 0.00 | 0.00 | 0.00 | 66 | 1012.1 |
| 20260504005842 | 49 | 167 | 5.2 | 7.0 | 0.00 | 0.00 | 0.00 | 66 | 1011.7 |
| 20260504004842 | 48 | 167 | 0.9 | 3.5 | 0.00 | 0.00 | 0.00 | 74 | 1011.6 |
| 20260504003841 | 48 | 165 | 1.7 | 4.3 | 0.00 | 0.00 | 0.00 | 73 | 1011.4 |
| 20260504000911 | 49 | 172 | 6.1 | 7.0 | 0.00 | 0.00 | 0.00 | 68 | 1011.6 |
| 20260503235841 | 49 | 213 | 4.3 | 9.6 | 0.00 | 0.00 | 0.00 | 67 | 1011.9 |
| 20260503234841 | 49 | 234 | 9.6 | 13.9 | 0.00 | 0.00 | 0.00 | 66 | 1011.9 |
| 20260503233840 | 50 | 223 | 4.3 | 22.6 | 0.00 | 0.00 | 0.00 | 64 | 1012.2 |
| 20260503232910 | 51 | 273 | 7.0 | 9.6 | 0.00 | 0.00 | 0.00 | 56 | 1011.9 |
| 20260503231840 | 51 | 355 | 2.6 | 4.3 | 0.00 | 0.00 | 0.00 | 54 | 1011.6 |
| 20260503230839 | 52 | 259 | 0.9 | 4.3 | 0.00 | 0.00 | 0.00 | 55 | 1011.4 |
| 20260503225840 | 52 | 263 | 1.7 | 6.1 | 0.00 | 0.00 | 0.00 | 54 | 1011.1 |
| 20260503224840 | 52 | 217 | 0.0 | 5.2 | 0.00 | 0.00 | 0.00 | 54 | 1011.1 |
| 20260503223909 | 52 | 199 | 2.6 | 4.3 | 0.00 | 0.00 | 0.00 | 55 | 1011.1 |
| 20260503222839 | 52 | 211 | 1.7 | 9.6 | 0.00 | 0.00 | 0.00 | 53 | 1011.1 |
| 20260503221839 | 52 | 182 | 5.2 | 7.8 | 0.00 | 0.00 | 0.00 | 53 | 1011.1 |
| 20260503220908 | 52 | 338 | 0.0 | 9.6 | 0.00 | 0.00 | 0.00 | 54 | 1011.2 |
| 20260503215908 | 52 | 344 | 3.5 | 11.3 | 0.00 | 0.00 | 0.00 | 54 | 1011.3 |
| 20260503214908 | 52 | 245 | 1.7 | 13.0 | 0.00 | 0.00 | 0.00 | 53 | 1011.3 |
| 20260503212838 | 51 | 311 | 5.2 | 12.2 | 0.00 | 0.00 | 0.00 | 54 | 1011.1 |
| 20260503211908 | 51 | 325 | 1.7 | 11.3 | 0.00 | 0.00 | 0.00 | 57 | 1011.2 |
| 20260503210907 | 51 | 206 | 0.9 | 14.8 | 0.00 | 0.00 | 0.00 | 54 | 1011.6 |
| 20260503205907 | 51 | 288 | 8.7 | 12.2 | 0.00 | 0.00 | 0.00 | 54 | 1011.6 |
| 20260503204907 | 51 | 270 | 9.6 | 14.8 | 0.00 | 0.00 | 0.00 | 54 | 1011.6 |
| 20260503203907 | 51 | 261 | 13.0 | 15.6 | 0.00 | 0.00 | 0.00 | 55 | 1011.7 |
| 20260503202907 | 51 | 300 | 8.7 | 17.4 | 0.00 | 0.00 | 0.00 | 55 | 1011.6 |
| 20260503201906 | 51 | 288 | 10.4 | 17.4 | 0.00 | 0.00 | 0.00 | 55 | 1011.7 |
| 20260503195906 | 51 | 300 | 13.0 | 14.8 | 0.00 | 0.00 | 0.00 | 57 | 1012.0 |
| 20260503193906 | 49 | 17 | 2.6 | 11.3 | 0.00 | 0.00 | 0.00 | 57 | 1012.3 |
| 20260503192906 | 49 | 300 | 6.1 | 13.9 | 0.00 | 0.00 | 0.00 | 56 | 1012.4 |
| 20260503191836 | 50 | 273 | 2.6 | 12.2 | 0.00 | 0.00 | 0.00 | 54 | 1012.3 |
| 20260503190906 | 50 | 221 | 5.2 | 13.9 | 0.00 | 0.00 | 0.00 | 58 | 1012.3 |
| 20260503185905 | 50 | 286 | 2.6 | 11.3 | 0.00 | 0.00 | 0.00 | 53 | 1012.5 |
| 20260503184905 | 49 | 236 | 4.3 | 16.5 | 0.00 | 0.00 | 0.00 | 53 | 1012.5 |
| 20260503183905 | 50 | 262 | 6.1 | 20.0 | 0.00 | 0.00 | 0.00 | 54 | 1012.8 |
| 20260503182905 | 50 | 250 | 4.3 | 14.8 | 0.00 | 0.00 | 0.00 | 51 | 1012.7 |
| 20260503181905 | 50 | 227 | 7.8 | 13.0 | 0.00 | 0.00 | 0.00 | 50 | 1012.7 |
| 20260503180904 | 49 | 236 | 13.0 | 16.5 | 0.00 | 0.00 | 0.00 | 52 | 1012.9 |
| 20260503175905 | 48 | 267 | 9.6 | 13.9 | 0.00 | 0.00 | 0.00 | 55 | 1013.0 |
| 20260503172904 | 49 | 305 | 9.6 | 12.2 | 0.00 | 0.00 | 0.00 | 52 | 1013.2 |
| 20260503171904 | 48 | 311 | 7.8 | 14.8 | 0.00 | 0.00 | 0.00 | 55 | 1013.3 |
| 20260503170904 | 47 | 324 | 5.2 | 13.9 | 0.00 | 0.00 | 0.00 | 53 | 1013.3 |
| 20260503150901 | 44 | 310 | 7.0 | 14.8 | 0.00 | 0.00 | 0.00 | 58 | 1014.3 |
| 20260503130900 | 40 | 216 | 2.6 | 10.4 | 0.00 | 0.00 | 0.00 | 74 | 1014.3 |